Regional Weather Roundup
Issued by NWS

Home | Current Version | Previous Version | Graphics & Text | Print | Product List | Glossary Off
Versions: 1 2 3 4 5 6 7 8 9 10 11 12 13 14 15 16 17 18 19 20 21 22 23 24 25 26 27 28 29 30 31 32 33 34 35 36 37 38 39 40 41 42 43 44 45 46 47 48 49 50

000
ASUS43 KLMK 171410
RWRKY
KENTUCKY REGIONAL WEATHER ROUNDUP
NATIONAL WEATHER SERVICE LOUISVILLE KY
1000 AM EDT WED SEP 17 2014

NOTE "FAIR" INDICATES FEW OR NO CLOUDS BELOW 12,000 FEET
WITH NO SIGNIFICANT WEATHER AND/OR OBSTRUCTIONS TO VISIBILITY.

KYZ001>023-026-027-061>063-070>075-171500-
WESTERN AND SOUTH CENTRAL KENTUCKY

CITY           SKY/WX    TMP DP  RH WIND       PRES   REMARKS
PADUCAH        CLOUDY    56  54  93 CALM      30.04R FOG
HENDERSON      MOSUNNY   55  54  94 NE3       30.05F
OWENSBORO      PTSUNNY   55  54  97 NE3       30.06F FOG
HOPKINSVILLE   FOG       53  53 100 SE2       30.04S VSB 1/4
BOWLING GREEN  CLOUDY    56  54  93 E5        30.05F FOG
GLASGOW        CLOUDY    56  56 100 SE3       30.05R FOG
$$

KYZ024-025-028>034-038-045-046-053-171500-
NORTH CENTRAL KENTUCKY

CITY           SKY/WX    TMP DP  RH WIND       PRES   REMARKS
LOUISVILLE/SDF PTSUNNY   60  52  74 N5        30.06S
LOUISVILLE/LOU CLOUDY    59  51  75 NE3       30.06F
FORT KNOX      PTSUNNY   56  53  88 NE7       30.05S
$$

KYZ035>037-039>044-047>052-055>060-089>105-171500-
NORTHEAST KENTUCKY

CITY           SKY/WX    TMP DP  RH WIND       PRES   REMARKS
LEXINGTON      SUNNY     62  51  67 NE7       30.05F
COVINGTON      CLOUDY    55  52  88 N3        30.07S
FRANKFORT      PTSUNNY   55  52  89 VRB3      30.05F
$$

KYZ054-064>069-076>088-106>120-171500-
SOUTHEAST KENTUCKY

CITY           SKY/WX    TMP DP  RH WIND       PRES   REMARKS
JACKSON        CLOUDY    56  52  86 CALM      30.06S
LONDON         PTSUNNY   62  55  77 NE3       30.05F
SOMERSET       NOT AVBL
MIDDLESBORO    SUNNY     60  55  84 CALM      30.05S
MONTICELLO     MOSUNNY   62  54  75 CALM      30.05F
$$



USA.gov is the U.S. government's official web portal to all federal, state and local government web resources and services.